Location: Betz
(49.1556°N, 2.9558°E)
Time: 07:32:03
(UTC+00:00)

Cosmos 2056 Rocket - Pass Details

Date: 18 September 2019
Orbit: 742 x 800 km, 74.0° (Epoch: 15 October)

Event Time Altitude Azimuth Distance (km) Brightness Sun altitude
Rises 19:48:14 0° 194° (SSW) 3,295 6.7 -18.6°
Reaches altitude 10° 19:50:38 10° 192° (SSW) 2,370 5.9 -18.9°
Maximum altitude 19:56:00 70° 110° (ESE) 851 3.5 -19.7°
Drops below altitude 10° 20:01:24 10° 27° (NNE) 2,375 6.1 -20.5°
Sets 20:03:48 0° 26° (NNE) 3,303 6.8 -20.8°
